This is the latest recevied weather packets stored in our database for station/object WD0REW. If no packets are shown the sender has not sent any weather packets the latest 1 day(s).
| Time | Temp. | Humidity | Pressure | Rain* | Wind** | Luminosity | Snow |
|---|---|---|---|---|---|---|---|
| 1778006379 | 11.67° C | 79% | 1009.9 hPa | 0 mm | 0 m/s | 60 W/m² | - |
| 1778006076 | 11.67° C | 77% | 1009.5 hPa | 0 mm | 0.89 m/s, 336° | 63 W/m² | - |
| 1778005773 | 11.67° C | 77% | 1009.5 hPa | 0 mm | 2.24 m/s, 350° | 56 W/m² | - |
| 1778005470 | 12.22° C | 76% | 1009.2 hPa | 0 mm | 0.45 m/s, 348° | 86 W/m² | - |
| 1778005166 | 12.22° C | 77% | 1009.2 hPa | 0 mm | 0.45 m/s, 90° | 85 W/m² | - |
| 1778004864 | 12.22° C | 76% | 1009.2 hPa | 0 mm | 0.45 m/s, 8° | 120 W/m² | - |
| 1778004560 | 12.22° C | 76% | 1009.1 hPa | 0 mm | 0.89 m/s, 69° | 107 W/m² | - |
| 1778004257 | 12.78° C | 75% | 1009.3 hPa | 0 mm | 2.24 m/s, 0° | 166 W/m² | - |
| 1778003953 | 12.78° C | 75% | 1009.1 hPa | 0 mm | 0.89 m/s, 4° | 180 W/m² | - |
| 1778003650 | 12.78° C | 76% | 1009.1 hPa | 0 mm | 1.34 m/s, 353° | 195 W/m² | - |
| 1778003346 | 12.78° C | 75% | 1009.1 hPa | 0 mm | 0.89 m/s, 4° | 204 W/m² | - |
| 1778003044 | 12.78° C | 76% | 1009.5 hPa | 0 mm | 0.45 m/s, 8° | 175 W/m² | - |
| 1778002740 | 12.78° C | 76% | 1009.5 hPa | 0 mm | 0.89 m/s, 352° | 159 W/m² | - |
| 1778002436 | 12.78° C | 77% | 1009.3 hPa | 0 mm | 0.89 m/s, 357° | 150 W/m² | - |
| 1778002133 | 12.78° C | 76% | 1009.2 hPa | 0 mm | 1.79 m/s, 352° | 129 W/m² | - |
| 1778001831 | 12.78° C | 77% | 1009.5 hPa | 0 mm | 0.45 m/s, 7° | 108 W/m² | - |
| 1778001531 | 12.78° C | 76% | 1009.5 hPa | 0 mm | 0.89 m/s, 10° | 101 W/m² | - |
| 1778001228 | 13.33° C | 76% | 1009.3 hPa | 0 mm | 0.89 m/s, 356° | 105 W/m² | - |
| 1778000924 | 13.33° C | 76% | 1009.5 hPa | 0 mm | 0.45 m/s, 26° | 96 W/m² | - |
| 1778000621 | 12.78° C | 77% | 1009 hPa | 0 mm | 0 m/s | 121 W/m² | - |
| 1778000316 | 12.78° C | 77% | 1009 hPa | 0 mm | 0.89 m/s, 5° | 143 W/m² | - |
| 1778000012 | 12.78° C | 78% | 1009 hPa | 0 mm | 0 m/s | 142 W/m² | - |
| 1777999708 | 13.33° C | 76% | 1008.9 hPa | 0 mm | 0.45 m/s, 359° | 138 W/m² | - |
| 1777999405 | 13.33° C | 76% | 1008.9 hPa | 0 mm | 2.68 m/s, 345° | 208 W/m² | - |
| 1777999103 | 13.33° C | 76% | 1008.9 hPa | 0 mm | 1.79 m/s, 339° | 292 W/m² | - |
* Rain latest hour (hover to see other rain measurements)
** Current wind speed in m/s (hover to see current wind gust speed)